Location: Lalanga
(4.5882°N, 32.9072°E)
Time: 14:35:39
(UTC+00:00)

Ariane H10 - Pass Details

Date: 24 January 2020
Orbit: 296 x 23246 km, 3.8° (Epoch: 22 February)

Event Time Altitude Azimuth Distance (km) Brightness Sun altitude
Rises 16:59:34 0° 253° (WSW) 2,258 7.4 -15.5°
Reaches altitude 10° 17:00:56 10° 243° (WSW) 1,664 6.1 -15.8°
Maximum altitude 17:04:05 41° 169° (S) 1,202 4.0 -16.5°
Enters shadow 17:12:57 13° 104° (ESE) 4,826 6.6 -18.6°
